[[{"header":{"parameterUnit":"m.s-1","parameterCategory":2,"la1":30.2991,"la2":30.254,"lo1":-89.0895,"lo2":-89.0444,"dy":0.0017,"dx":0.0017,"nx":28,"ny":28,"refTime":"2024-12-05T03:00:00:Z","depth":"0","parameterNumber":2,"parameterNumberName":"U-component_of_CURRENTS"},"data":[0,0,0,0,0,0,0,0,0,0,0,0,0,0,0,0,0,0,0,0,0,0,0,0,0,0,0,0,0,0,0,0,0,0,0,0,0,0,0,0,0,0,0,0,0,0,0,0,0,0,0,0,0,0,0,0,0,0,-0.3279,-0.328,0,-0.3334,-0.3334,-0.3334,-0.3269,-0.3267,-0.3265,-0.3263,-0.3216,-0.3217,-0.3218,0,0,0,0,0,0,0,0,0,0,0,0,0,-0.3206,-0.3207,-0.3279,-0.328,-0.3281,-0.3334,-0.3334,-0.3334,-0.327,-0.3267,-0.3265,-0.3262,-0.3216,-0.3217,-0.3218,0,0,0,0,0,0,0,0,0,0,0,0,0,-0.3243,-0.3207,-0.3278,-0.3257,-0.3256,-0.3333,-0.3334,-0.3334,-0.327,-0.3267,-0.3264,-0.3261,-0.3216,-0.3217,-0.3218,-0.3287,0,0,-0.3221,-0.3221,0,0,0,0,0,0,0,0,-0.3241,-0.3245,-0.326,-0.3259,-0.3258,-0.3294,-0.3291,-0.3315,-0.3271,-0.3261,-0.3263,-0.3259,-0.3238,-0.3237,-0.325,-0.3285,-0.3283,-0.3221,-0.3222,-0.3222,-0.3222,0,0,0,0,0,0,0,-0.3238,-0.3243,-0.3297,-0.3261,-0.326,-0.3276,-0.3276,-0.3296,-0.3262,-0.3262,-0.3258,-0.3271,-0.3235,-0.325,-0.3248,-0.3282,-0.3221,-0.3222,-0.3223,-0.3223,-0.3221,-0.322,0,0,0,0,0,0,-0.3238,-0.3241,-0.3295,-0.3299,-0.3246,-0.328,-0.328,-0.3283,-0.3263,-0.3259,-0.3274,-0.3268,-0.3249,-0.3247,-0.3246,-0.3203,-0.3222,-0.3223,-0.3224,-0.3221,-0.3221,-0.322,0,0,0,0,0,0,-0.3236,-0.3242,-0.3293,-0.3274,-0.3282,-0.3284,-0.3288,-0.3286,-0.3286,-0.3274,-0.3266,-0.3274,-0.3247,-0.3245,-0.3244,-0.3205,-0.3224,-0.3224,-0.3222,-0.3221,-0.322,-0.3195,0,0,0,0,0,0,-0.3234,-0.3241,-0.324,-0.3274,-0.3283,-0.3327,-0.3291,-0.3289,-0.3301,-0.3293,-0.3273,-0.3266,-0.3244,-0.3242,-0.3245,-0.3206,-0.3225,-0.3223,-0.3222,-0.322,-0.3196,-0.3193,-0.319,0,0,0,0,0,-0.3231,-0.3244,-0.3239,-0.3246,-0.3282,-0.3328,-0.3334,-0.3323,-0.3304,-0.331,-0.3288,-0.3266,-0.3234,-0.3245,-0.3247,-0.3207,-0.3224,-0.3222,-0.3221,-0.3198,-0.3194,-0.319,0,0,0,0,0,0,-0.3244,-0.3241,-0.3235,-0.3255,-0.3283,-0.3317,-0.3328,-0.3331,-0.3325,-0.331,-0.3286,-0.3279,-0.3251,-0.3251,-0.3263,-0.3201,-0.3215,-0.3214,-0.3196,-0.3193,-0.3189,-0.3187,-0.3226,0,0,0,0,0,-0.3243,-0.322,-0.3258,-0.3271,-0.3288,-0.3311,-0.3328,-0.3328,-0.3335,-0.3329,-0.3315,-0.3288,-0.3256,-0.3242,-0.3227,-0.3225,-0.3225,-0.3192,-0.3188,-0.3186,-0.3185,-0.3178,-0.3174,-0.3215,-0.3215,-0.3215,0,0,-0.3251,-0.3248,-0.3238,-0.3267,-0.3287,-0.3293,-0.3311,-0.3342,-0.3323,-0.3329,-0.3297,-0.3289,-0.3255,-0.3224,-0.321,-0.3214,-0.3171,-0.3184,-0.3182,-0.3182,-0.3176,-0.3172,-0.3169,-0.3214,-0.3214,-0.3214,0,0,-0.3253,-0.326,-0.3239,-0.3254,-0.3283,-0.3295,-0.3303,-0.3339,-0.3327,-0.3325,-0.3296,-0.3276,-0.3251,-0.3211,-0.3185,-0.3168,-0.3157,-0.3151,-0.313,-0.3123,-0.312,-0.3117,-0.3099,-0.3094,-0.3145,-0.3145,-0.3145,0,-0.3265,-0.3231,-0.3252,-0.3246,-0.3243,-0.3287,-0.328,-0.3289,-0.3311,-0.3308,-0.33,-0.3257,-0.3233,-0.3177,-0.3151,-0.3157,-0.3156,-0.3145,-0.3119,-0.3117,-0.3114,-0.3096,-0.3092,-0.3143,-0.3143,-0.3144,-0.3144,0,-0.3236,-0.3216,-0.3219,-0.3187,-0.3208,-0.3212,-0.3234,-0.3248,-0.3244,-0.3247,-0.3222,-0.3208,-0.3179,-0.3155,-0.3141,-0.3101,-0.3106,-0.312,-0.3131,-0.3109,-0.3091,-0.3087,-0.3141,-0.3142,-0.3142,-0.3142,0,0,-0.323,-0.3193,-0.3186,-0.3159,-0.3165,-0.3184,-0.3172,-0.3177,-0.3173,-0.3178,-0.3159,-0.3105,-0.3128,-0.3101,-0.3091,-0.3078,-0.3048,-0.3089,-0.309,-0.3073,-0.3028,-0.2932,-0.2919,-0.3064,-0.3064,-0.3063,-0.3017,0,-0.3187,-0.3127,-0.313,-0.3088,-0.3064,-0.31,-0.309,-0.3109,-0.312,-0.3125,-0.3116,-0.3097,-0.3094,-0.3087,-0.3073,-0.3066,-0.3039,-0.3059,-0.305,-0.3049,-0.2968,-0.2911,-0.2779,-0.2719,-0.3014,-0.3013,-0.3012,0,-0.3133,-0.3094,-0.3024,-0.3013,-0.3015,-0.3005,-0.3011,-0.3015,-0.3044,-0.3061,-0.3065,-0.3079,-0.3055,-0.3064,-0.3033,-0.3051,-0.3029,-0.3022,-0.302,-0.2938,-0.2945,-0.279,-0.2701,-0.2682,-0.3006,-0.3007,-0.3007,0,-0.3059,-0.3026,-0.2948,-0.2934,-0.2933,-0.293,-0.2947,-0.2985,-0.3001,-0.3027,-0.305,-0.3043,-0.304,-0.3026,-0.301,-0.3026,-0.2982,-0.3004,-0.289,-0.2884,-0.2771,-0.2754,-0.2661,-0.2965,-0.2965,-0.2965,-0.2965,0,-0.297,-0.2924,-0.2906,-0.286,-0.2826,-0.2868,-0.2862,-0.2896,-0.2946,-0.2955,-0.301,-0.3013,-0.3035,-0.3023,-0.3004,-0.2923,-0.2973,-0.2865,-0.2856,-0.2755,-0.2739,-0.2718,-0.2762,-0.2963,-0.2964,-0.2964,-0.2964,0,-0.2866,-0.2849,-0.278,-0.2767,-0.2775,-0.275,-0.2813,-0.282,-0.289,-0.2907,-0.2917,-0.2984,-0.2962,-0.2967,-0.2939,-0.2897,-0.2789,-0.2801,-0.2671,-0.2646,-0.2505,-0.2553,-0.2479,-0.2405,-0.266,-0.2657,-0.2655,0,-0.2791,-0.2725,-0.2691,-0.2667,-0.265,-0.265,-0.2661,-0.2759,-0.2781,-0.2874,-0.2868,-0.2888,-0.2851,-0.2788,-0.272,-0.2642,-0.2672,-0.2489,-0.2478,-0.245,-0.2499,-0.2551,-0.25,-0.2322,-0.2317,-0.2313,-0.231,0,-0.2629,-0.2608,-0.2543,-0.2506,-0.2501,-0.2513,-0.2544,-0.2569,-0.2678,-0.2703,-0.272,-0.2703,-0.2656,-0.2521,-0.2442,-0.2386,-0.2422,-0.2401,-0.2408,-0.2239,-0.2255,-0.2196,-0.2412,-0.2274,-0.2278,-0.2281,-0.2282,-0.2284,-0.251,-0.2418,-0.2345,-0.2308,-0.233,-0.2347,-0.2308,-0.2384,-0.2403,-0.2412,-0.2502,-0.2434,-0.2382,-0.2237,-0.2177,-0.2045,-0.2145,-0.1996,-0.206,-0.2119,-0.2023,-0.2144,-0.1979,-0.1981,-0.1982,-0.1983,-0.1985,0,-0.2335,-0.2239,-0.2167,-0.2133,-0.212,-0.2177,-0.2194,-0.2123,-0.2092,-0.216,-0.2137,-0.2098,-0.1967,-0.1942,-0.1832,-0.1744,-0.1718,-0.1724,-0.1775,-0.174,-0.1855,-0.1812,-0.1558,-0.1558,-0.1558,-0.1558,-0.1558,-0.1558,-0.2214,-0.2071,-0.2009,-0.1915,-0.1912,-0.1772,-0.1734,-0.1676,-0.1662,-0.1603,-0.1623,-0.1679,-0.1728,-0.1865,-0.1738,-0.1644,-0.1632,-0.1578,-0.1634,-0.174,-0.1771,-0.1801,-0.1767,-0.1508,-0.1508,-0.1429,-0.1428,-0.1428]},{"header":{"parameterUnit":"m.s-1","parameterCategory":2,"la1":30.2991,"la2":30.254,"lo1":-89.0895,"lo2":-89.0444,"dy":0.0017,"dx":0.0017,"nx":28,"ny":28,"refTime":"2024-12-05T03:00:00:Z","depth":"0","parameterNumber":3,"parameterNumberName":"V-component_of_CURRENTS"},"data":[0,0,0,0,0,0,0,0,0,0,0,0,0,0,0,0,0,0,0,0,0,0,0,0,0,0,0,0,0,0,0,0,0,0,0,0,0,0,0,0,0,0,0,0,0,0,0,0,0,0,0,0,0,0,0,0,0,0,0.0005,0.0006,0,0.0133,0.0135,0.0136,0.0224,0.0225,0.0225,0.0226,0.0428,0.0432,0.0437,0,0,0,0,0,0,0,0,0,0,0,0,0,-0.0023,-0.0023,0.0005,0.0006,0.0008,0.0133,0.0135,0.0137,0.0224,0.0225,0.0226,0.0226,0.0426,0.0432,0.0438,0,0,0,0,0,0,0,0,0,0,0,0,0,0.0036,-0.0024,0.0004,0.0066,0.0072,0.0133,0.0135,0.0137,0.0224,0.0225,0.0226,0.0226,0.0424,0.0431,0.0438,0.0467,0,0,0.0461,0.0464,0,0,0,0,0,0,0,0,0.0033,0.0037,0.0055,0.0062,0.0069,0.0163,0.0199,0.0251,0.0224,0.0168,0.0226,0.0227,0.0344,0.0358,0.0381,0.0476,0.0485,0.0461,0.0466,0.0469,0.0471,0,0,0,0,0,0,0,0.0028,0.0033,0.0057,0.0057,0.0065,0.0135,0.0143,0.021,0.0252,0.0173,0.0179,0.0191,0.0349,0.0374,0.0387,0.0488,0.0461,0.0468,0.0472,0.0475,0.0587,0.0586,0,0,0,0,0,0,0.0002,0.0028,0.0053,0.006,0.0051,0.0134,0.0144,0.0133,0.025,0.0268,0.019,0.0195,0.0361,0.0378,0.0394,0.0408,0.0469,0.0476,0.048,0.0589,0.0587,0.0586,0,0,0,0,0,0,0.0,0.0001,0.0047,0.0048,0.0059,0.0133,0.0121,0.0135,0.0159,0.0263,0.0282,0.02,0.0362,0.0384,0.044,0.0418,0.0479,0.0486,0.059,0.0588,0.0586,0.0454,0,0,0,0,0,0,-0.0002,-0.0,-0.0021,0.0045,0.0058,0.0068,0.012,0.0137,0.0165,0.0172,0.0277,0.0297,0.0365,0.0428,0.0447,0.0429,0.0491,0.0592,0.0589,0.0587,0.046,0.0447,0.0437,0,0,0,0,0,-0.0004,-0.0038,-0.0023,-0.002,0.0027,0.0066,0.0079,0.0137,0.0164,0.0164,0.0233,0.0294,0.0425,0.0433,0.0456,0.0439,0.0593,0.059,0.0587,0.0465,0.045,0.0437,0,0,0,0,0,0,-0.0042,-0.0031,-0.0013,-0.0038,0.0004,0.0081,0.0086,0.0127,0.0181,0.019,0.0287,0.0311,0.0347,0.0409,0.0416,0.0461,0.0515,0.0516,0.0414,0.0401,0.039,0.0387,0.0497,0,0,0,0,0,-0.0067,-0.0106,-0.0054,-0.0074,-0.0058,0.0011,0.0034,0.0073,0.0133,0.0158,0.0228,0.0298,0.0351,0.0388,0.0445,0.048,0.0553,0.0479,0.0468,0.0457,0.0468,0.0541,0.0538,0.0575,0.0575,0.0575,0,0,-0.0088,-0.0086,-0.0106,-0.0087,-0.0049,-0.0042,0.0027,0.0051,0.0061,0.0172,0.0201,0.0263,0.0349,0.0379,0.0401,0.0432,0.0482,0.0453,0.0444,0.0462,0.0538,0.0534,0.0532,0.0573,0.0574,0.0574,0,0,-0.0149,-0.0145,-0.0194,-0.0169,-0.0131,-0.0086,-0.0086,-0.0019,0.0013,0.0049,0.0122,0.0172,0.0256,0.0313,0.0353,0.0315,0.0414,0.0322,0.0273,0.0341,0.0339,0.0339,0.0415,0.0423,0.0321,0.0321,0.0321,0,-0.017,-0.0222,-0.0193,-0.0215,-0.0199,-0.0116,-0.0131,-0.009,-0.0014,0.0015,0.0038,0.0159,0.0225,0.0277,0.0258,0.029,0.035,0.0317,0.0327,0.0328,0.033,0.0409,0.0419,0.0314,0.0315,0.0316,0.0316,0,-0.0264,-0.0288,-0.0305,-0.0319,-0.0296,-0.0293,-0.023,-0.0203,-0.0154,-0.01,-0.0043,0.0046,0.0125,0.0138,0.019,0.0226,0.027,0.0298,0.0362,0.0318,0.0404,0.0416,0.0304,0.0307,0.0309,0.0311,0,0,-0.0349,-0.0371,-0.0376,-0.0384,-0.0348,-0.0333,-0.032,-0.0271,-0.0249,-0.0182,-0.0144,-0.0068,-0.0004,0.0045,0.0115,0.0173,0.0223,0.0231,0.0238,0.0307,0.0385,0.0433,0.0453,0.0252,0.0253,0.0254,0.0437,0,-0.0422,-0.0492,-0.0477,-0.0509,-0.0524,-0.0447,-0.0436,-0.0379,-0.0314,-0.0258,-0.0158,-0.0099,-0.0044,-0.0005,0.0057,0.0185,0.0252,0.0172,0.0419,0.0427,0.0475,0.0467,0.0507,0.0675,0.045,0.0452,0.0454,0,-0.0521,-0.0549,-0.0607,-0.0592,-0.059,-0.0592,-0.0536,-0.0514,-0.0414,-0.0361,-0.0277,-0.0185,-0.0085,-0.0037,0.0164,0.0109,0.0237,0.0336,0.0346,0.0452,0.0499,0.0686,0.0708,0.0884,0.0474,0.0473,0.0471,0,-0.0603,-0.0632,-0.068,-0.068,-0.0656,-0.0653,-0.0627,-0.0547,-0.0518,-0.0414,-0.0372,-0.0239,-0.0156,-0.0001,0.0205,0.0188,0.0437,0.0444,0.0613,0.0619,0.0736,0.0749,0.0962,0.0593,0.0593,0.0592,0.0592,0,-0.0695,-0.0728,-0.0721,-0.0748,-0.0776,-0.0727,-0.0728,-0.0677,-0.0599,-0.0556,-0.0428,-0.035,-0.0143,0.0029,0.0199,0.0452,0.0441,0.0619,0.0672,0.0689,0.0695,0.0921,0.0979,0.0599,0.0598,0.0596,0.0595,0,-0.0786,-0.0791,-0.0833,-0.0824,-0.0822,-0.0839,-0.0803,-0.0791,-0.0709,-0.0645,-0.0612,-0.042,-0.0189,0.0036,0.0316,0.0458,0.0807,0.0781,0.079,0.0839,0.1129,0.1175,0.1461,0.1573,0.0986,0.0989,0.0991,0,-0.0838,-0.0878,-0.0895,-0.0918,-0.0918,-0.0928,-0.0927,-0.0858,-0.0831,-0.0673,-0.064,-0.0408,-0.0213,0.021,0.0497,0.0816,0.095,0.1035,0.1005,0.1167,0.1259,0.1295,0.137,0.1114,0.1117,0.1119,0.1121,0,-0.0919,-0.0927,-0.0958,-0.1006,-0.1024,-0.1033,-0.1019,-0.1008,-0.0902,-0.0819,-0.0639,-0.0467,-0.0052,0.0333,0.0732,0.092,0.1163,0.1091,0.127,0.1389,0.1435,0.156,0.0972,0.1141,0.1139,0.1138,0.1137,0.1136,-0.0952,-0.0997,-0.1032,-0.1074,-0.1099,-0.11,-0.1036,-0.1,-0.0922,-0.07,-0.0629,-0.0299,0.0199,0.0771,0.0982,0.1417,0.1368,0.1548,0.1598,0.1625,0.1716,0.1168,0.1379,0.1378,0.1377,0.1377,0.1376,0,-0.0953,-0.1023,-0.1087,-0.1109,-0.1112,-0.1108,-0.105,-0.0921,-0.0761,-0.0611,-0.0399,0.0123,0.0636,0.1098,0.167,0.1912,0.1961,0.2028,0.2098,0.2156,0.17,0.1686,0.1959,0.1959,0.1959,0.1959,0.1958,0.1958,-0.0956,-0.1028,-0.1074,-0.1092,-0.108,-0.0946,-0.0858,-0.0687,-0.0519,-0.0166,0.0139,0.0357,0.0914,0.1781,0.2329,0.2383,0.2591,0.2566,0.2681,0.2361,0.232,0.228,0.2284,0.2678,0.2679,0.3134,0.3139,0.3142]}],[{"header":{"parameterUnit":"m.s-1","parameterCategory":2,"la1":30.2991,"la2":30.254,"lo1":-89.0895,"lo2":-89.0444,"dy":0.0017,"dx":0.0017,"nx":28,"ny":28,"refTime":"2024-12-05T03:00:00:Z","depth":"2","parameterNumber":2,"parameterNumberName":"U-component_of_CURRENTS"},"data":[0,0,0,0,0,0,0,0,0,0,0,0,0,0,0,0,0,0,0,0,0,0,0,0,0,0,0,0,0,0,0,0,0,0,0,0,0,0,0,0,0,0,0,0,0,0,0,0,0,0,0,0,0,0,0,0,0,0,-0.2592,-0.2593,0,-0.2655,-0.2656,-0.2656,-0.2626,-0.2625,-0.2623,-0.2622,-0.264,-0.2642,-0.2643,0,0,0,0,0,0,0,0,0,0,0,0,0,-0.2412,-0.2416,-0.2592,-0.2593,-0.2595,-0.2655,-0.2656,-0.2656,-0.2626,-0.2625,-0.2623,-0.2622,-0.264,-0.2642,-0.2644,0,0,0,0,0,0,0,0,0,0,0,0,0,-0.2481,-0.2417,-0.2592,-0.2589,-0.259,-0.2655,-0.2656,-0.2656,-0.2627,-0.2625,-0.2623,-0.2621,-0.2639,-0.2641,-0.2644,-0.2699,0,0,-0.2652,-0.2653,0,0,0,0,0,0,0,0,-0.2478,-0.2488,-0.2589,-0.259,-0.2591,-0.2634,-0.2599,-0.2669,-0.2627,-0.2609,-0.2622,-0.262,-0.2637,-0.264,-0.2652,-0.2699,-0.27,-0.2652,-0.2653,-0.2654,-0.2655,0,0,0,0,0,0,0,-0.2473,-0.2485,-0.2614,-0.259,-0.2591,-0.2573,-0.2581,-0.2612,-0.263,-0.2611,-0.2609,-0.2622,-0.2637,-0.265,-0.2652,-0.27,-0.2652,-0.2654,-0.2656,-0.2657,-0.276,-0.2762,0,0,0,0,0,0,-0.2477,-0.2481,-0.2612,-0.2616,-0.2532,-0.2579,-0.2587,-0.2619,-0.2631,-0.2632,-0.2624,-0.2621,-0.2646,-0.2649,-0.2653,-0.2682,-0.2654,-0.2657,-0.2658,-0.2759,-0.2761,-0.2762,0,0,0,0,0,0,-0.2473,-0.2489,-0.2609,-0.255,-0.2565,-0.2584,-0.262,-0.2621,-0.2632,-0.2642,-0.2641,-0.2633,-0.2645,-0.2649,-0.2685,-0.2684,-0.2658,-0.266,-0.2758,-0.276,-0.2761,-0.2765,0,0,0,0,0,0,-0.2468,-0.2487,-0.251,-0.2552,-0.2569,-0.2646,-0.2623,-0.2624,-0.2645,-0.2641,-0.265,-0.265,-0.2644,-0.2682,-0.2688,-0.2687,-0.2662,-0.2756,-0.2759,-0.2761,-0.2763,-0.2767,-0.2769,0,0,0,0,0,-0.2461,-0.2495,-0.2511,-0.2527,-0.2601,-0.2647,-0.2654,-0.2657,-0.2647,-0.2658,-0.2668,-0.2649,-0.2699,-0.2686,-0.2692,-0.2692,-0.2755,-0.2758,-0.2761,-0.2762,-0.2766,-0.2769,0,0,0,0,0,0,-0.2414,-0.2498,-0.2515,-0.2569,-0.2607,-0.2643,-0.2654,-0.2667,-0.2686,-0.2679,-0.2679,-0.2681,-0.2708,-0.2714,-0.2698,-0.2731,-0.2719,-0.2724,-0.2718,-0.2722,-0.2725,-0.2712,-0.2664,0,0,0,0,0,-0.2423,-0.2478,-0.2538,-0.258,-0.2598,-0.263,-0.2649,-0.2661,-0.2686,-0.2692,-0.2705,-0.2716,-0.2729,-0.2735,-0.2754,-0.2785,-0.2773,-0.2787,-0.279,-0.2792,-0.2789,-0.2784,-0.2785,-0.2771,-0.2771,-0.2771,0,0,-0.24,-0.2469,-0.2486,-0.2575,-0.2599,-0.2636,-0.2635,-0.267,-0.2694,-0.2694,-0.2725,-0.2735,-0.2743,-0.2767,-0.2778,-0.2767,-0.2791,-0.2796,-0.2798,-0.2792,-0.2787,-0.2788,-0.2788,-0.2773,-0.2773,-0.2772,0,0,-0.2405,-0.2458,-0.2504,-0.2549,-0.2615,-0.264,-0.2654,-0.2703,-0.271,-0.2759,-0.2751,-0.2765,-0.2804,-0.2796,-0.2798,-0.2838,-0.2812,-0.2843,-0.2843,-0.2838,-0.2839,-0.2839,-0.2819,-0.2817,-0.2839,-0.2839,-0.2839,0,-0.2382,-0.2458,-0.2516,-0.2579,-0.2606,-0.2643,-0.2676,-0.2703,-0.2758,-0.2766,-0.2767,-0.2809,-0.2812,-0.2821,-0.2825,-0.2841,-0.2832,-0.2822,-0.2839,-0.2839,-0.2839,-0.2819,-0.2817,-0.2839,-0.2839,-0.2839,-0.2839,0,-0.2426,-0.248,-0.2506,-0.2602,-0.2637,-0.2673,-0.2721,-0.275,-0.2769,-0.2793,-0.2819,-0.2833,-0.2846,-0.285,-0.2848,-0.285,-0.2841,-0.2845,-0.2822,-0.284,-0.2819,-0.2816,-0.284,-0.284,-0.284,-0.284,0,0,-0.2371,-0.2513,-0.252,-0.2556,-0.2651,-0.268,-0.2725,-0.2767,-0.2783,-0.2826,-0.284,-0.2859,-0.2859,-0.2862,-0.286,-0.2853,-0.284,-0.2847,-0.2847,-0.2813,-0.2819,-0.2728,-0.2717,-0.2847,-0.2847,-0.2847,-0.28,0,-0.2377,-0.2497,-0.2562,-0.2616,-0.2652,-0.2704,-0.274,-0.2784,-0.2814,-0.2842,-0.2848,-0.2866,-0.2865,-0.2866,-0.2861,-0.2855,-0.2837,-0.2852,-0.2819,-0.2817,-0.2722,-0.2712,-0.2506,-0.244,-0.2798,-0.2798,-0.2797,0,-0.2384,-0.2465,-0.2543,-0.2622,-0.2639,-0.2675,-0.2724,-0.2765,-0.2812,-0.2835,-0.2855,-0.2869,-0.2871,-0.2867,-0.2851,-0.2862,-0.2836,-0.2825,-0.2823,-0.2733,-0.2722,-0.2483,-0.2422,-0.2794,-0.2794,-0.2794,-0.2794,0,-0.2313,-0.243,-0.2494,-0.2528,-0.2633,-0.2651,-0.2692,-0.275,-0.2778,-0.2823,-0.2845,-0.2861,-0.2864,-0.2851,-0.2831,-0.2842,-0.2804,-0.2816,-0.2706,-0.2699,-0.2513,-0.249,-0.2788,-0.2788,-0.2788,-0.2788,-0.2788,0,-0.2298,-0.2332,-0.2463,-0.2493,-0.2526,-0.2607,-0.2636,-0.2684,-0.2745,-0.2765,-0.2826,-0.2834,-0.2861,-0.285,-0.2828,-0.275,-0.2798,-0.2693,-0.2677,-0.2509,-0.2487,-0.2792,-0.2793,-0.2786,-0.2787,-0.2787,-0.2787,0,-0.2212,-0.2316,-0.2367,-0.2473,-0.2497,-0.2514,-0.26,-0.2618,-0.2696,-0.2724,-0.2738,-0.2808,-0.2789,-0.2796,-0.2769,-0.2728,-0.2677,-0.2634,-0.2427,-0.2387,-0.2577,-0.258,-0.2507,-0.2504,-0.2501,-0.2498,-0.2496,0,-0.2188,-0.2213,-0.2325,-0.234,-0.2385,-0.2432,-0.2457,-0.2565,-0.2592,-0.269,-0.2687,-0.2712,-0.2674,-0.2615,-0.2548,-0.2471,-0.2575,-0.2255,-0.2234,-0.2554,-0.2547,-0.2554,-0.256,-0.199,-0.1983,-0.1979,-0.1974,0,-0.2092,-0.214,-0.219,-0.2234,-0.2265,-0.2306,-0.2356,-0.2377,-0.249,-0.2518,-0.253,-0.2512,-0.2469,-0.2297,-0.2226,-0.2163,-0.2255,-0.2149,-0.252,-0.2099,-0.2063,-0.2058,-0.2081,-0.1929,-0.1934,-0.1937,-0.194,-0.1942,-0.1986,-0.2002,-0.2066,-0.209,-0.2133,-0.2145,-0.2109,-0.2181,-0.2195,-0.219,-0.2294,-0.2194,-0.2189,-0.1953,-0.186,-0.1796,-0.1955,-0.1879,-0.1895,-0.1917,-0.1871,-0.1832,-0.1646,-0.1649,-0.1651,-0.1653,-0.1655,0,-0.1821,-0.1874,-0.1905,-0.1931,-0.1902,-0.1983,-0.2002,-0.1937,-0.1883,-0.1922,-0.1893,-0.1701,-0.1583,-0.1588,-0.1409,-0.1387,-0.1382,-0.134,-0.1335,-0.1379,-0.1419,-0.135,-0.0986,-0.0984,-0.0982,-0.0981,0,0,-0.1738,-0.1728,-0.1769,-0.1684,-0.1688,-0.1594,-0.156,-0.1511,-0.1494,-0.1403,-0.1352,-0.1459,-0.1505,-0.1239,-0.1187,-0.1051,-0.12,-0.0994,-0.1526,-0.156,-0.1597,-0.1718,-0.166,0,0,0,0,0]},{"header":{"parameterUnit":"m.s-1","parameterCategory":2,"la1":30.2991,"la2":30.254,"lo1":-89.0895,"lo2":-89.0444,"dy":0.0017,"dx":0.0017,"nx":28,"ny":28,"refTime":"2024-12-05T03:00:00:Z","depth":"2","parameterNumber":3,"parameterNumberName":"V-component_of_CURRENTS"},"data":[0,0,0,0,0,0,0,0,0,0,0,0,0,0,0,0,0,0,0,0,0,0,0,0,0,0,0,0,0,0,0,0,0,0,0,0,0,0,0,0,0,0,0,0,0,0,0,0,0,0,0,0,0,0,0,0,0,0,-0.0254,-0.0253,0,-0.0157,-0.0156,-0.0154,-0.0078,-0.0078,-0.0077,-0.0077,0.0106,0.011,0.0114,0,0,0,0,0,0,0,0,0,0,0,0,0,-0.0329,-0.0329,-0.0254,-0.0253,-0.0252,-0.0157,-0.0156,-0.0154,-0.0079,-0.0078,-0.0077,-0.0076,0.0105,0.011,0.0115,0,0,0,0,0,0,0,0,0,0,0,0,0,-0.027,-0.0328,-0.0254,-0.0203,-0.0198,-0.0157,-0.0155,-0.0154,-0.0079,-0.0078,-0.0077,-0.0076,0.0103,0.0109,0.0115,0.0136,0,0,0.0135,0.0138,0,0,0,0,0,0,0,0,-0.0274,-0.0267,-0.0212,-0.0207,-0.0201,-0.013,-0.0115,-0.0053,-0.0079,-0.0123,-0.0077,-0.0075,0.0034,0.0046,0.0062,0.0144,0.0152,0.0136,0.0139,0.0142,0.0144,0,0,0,0,0,0,0,-0.0278,-0.0271,-0.0214,-0.0211,-0.0204,-0.017,-0.0161,-0.0103,-0.0049,-0.0119,-0.0114,-0.0105,0.0038,0.0056,0.0067,0.0155,0.0135,0.0141,0.0145,0.0148,0.0296,0.0296,0,0,0,0,0,0,-0.0295,-0.0275,-0.0217,-0.0212,-0.0237,-0.017,-0.016,-0.0153,-0.0051,-0.0036,-0.0106,-0.0102,0.0044,0.006,0.0074,0.0121,0.0142,0.0148,0.0152,0.0296,0.0296,0.0296,0,0,0,0,0,0,-0.0297,-0.0291,-0.0221,-0.0242,-0.0231,-0.017,-0.0163,-0.0151,-0.013,-0.0042,-0.0024,-0.0096,0.0046,0.0065,0.0127,0.0128,0.0151,0.0157,0.0296,0.0296,0.0296,0.0204,0,0,0,0,0,0,-0.03,-0.0293,-0.0296,-0.0243,-0.023,-0.0205,-0.0163,-0.015,-0.0127,-0.012,-0.0028,-0.001,0.0048,0.0117,0.0133,0.0137,0.0162,0.0296,0.0296,0.0296,0.0207,0.0201,0.0196,0,0,0,0,0,-0.0303,-0.0314,-0.0297,-0.029,-0.0236,-0.0206,-0.0196,-0.0148,-0.0128,-0.0125,-0.0059,-0.0013,0.013,0.0122,0.0141,0.0147,0.0296,0.0296,0.0296,0.021,0.0202,0.0196,0,0,0,0,0,0,-0.0356,-0.0306,-0.0286,-0.0284,-0.0251,-0.0193,-0.0188,-0.0156,-0.0104,-0.0095,-0.0011,0.0011,0.0065,0.0118,0.0107,0.0191,0.022,0.0224,0.0148,0.0142,0.0137,0.0121,0.0167,0,0,0,0,0,-0.037,-0.036,-0.0312,-0.0311,-0.0298,-0.0246,-0.0228,-0.0196,-0.0143,-0.012,-0.0055,0.0017,0.0079,0.0118,0.0178,0.0225,0.0276,0.0242,0.0236,0.0231,0.0233,0.0298,0.0298,0.0297,0.0297,0.0297,0,0,-0.0393,-0.0363,-0.0359,-0.0321,-0.0292,-0.0278,-0.0232,-0.0213,-0.0192,-0.0107,-0.0062,-0.0002,0.0086,0.0137,0.0166,0.0184,0.0258,0.0232,0.0226,0.0231,0.0299,0.0299,0.0299,0.0297,0.0297,0.0297,0,0,-0.0432,-0.0406,-0.0411,-0.0385,-0.0346,-0.0309,-0.0308,-0.0253,-0.022,-0.0174,-0.0107,-0.0048,0.0045,0.0108,0.0153,0.0155,0.0223,0.0173,0.014,0.0203,0.0203,0.0204,0.0263,0.027,0.0175,0.0174,0.0174,0,-0.0462,-0.0456,-0.041,-0.0406,-0.0389,-0.0328,-0.0331,-0.029,-0.022,-0.0191,-0.017,-0.0035,0.0034,0.0109,0.0108,0.0143,0.0186,0.0154,0.0194,0.0196,0.0199,0.0259,0.0268,0.017,0.0171,0.0171,0.0171,0,-0.0499,-0.0493,-0.0496,-0.0464,-0.0443,-0.0436,-0.0376,-0.0347,-0.0301,-0.0252,-0.018,-0.009,-0.0008,0.002,0.0068,0.0122,0.0148,0.0172,0.0204,0.0193,0.0258,0.0269,0.0164,0.0165,0.0167,0.0168,0,0,-0.0562,-0.053,-0.0529,-0.0525,-0.0472,-0.046,-0.0426,-0.0375,-0.035,-0.0278,-0.0236,-0.0134,-0.0087,-0.0033,0.0034,0.009,0.0142,0.013,0.0136,0.0177,0.0278,0.0297,0.0312,0.0168,0.017,0.0171,0.0312,0,-0.0603,-0.0617,-0.058,-0.0585,-0.0587,-0.0521,-0.0495,-0.0439,-0.0378,-0.0322,-0.0222,-0.0158,-0.0105,-0.0069,-0.0006,0.0106,0.0168,0.0102,0.0293,0.0299,0.0309,0.0324,0.0283,0.0406,0.0323,0.0325,0.0326,0,-0.0649,-0.0646,-0.0668,-0.0641,-0.0635,-0.0627,-0.0573,-0.0541,-0.0444,-0.0396,-0.0314,-0.0232,-0.0129,-0.009,0.0093,0.0045,0.0152,0.0238,0.0246,0.0305,0.034,0.0407,0.0429,0.0346,0.0344,0.0343,0.0341,0,-0.0716,-0.0707,-0.0727,-0.0718,-0.0679,-0.0672,-0.0645,-0.0568,-0.0539,-0.044,-0.0407,-0.0274,-0.02,-0.0061,0.0115,0.0106,0.0314,0.0329,0.0453,0.0456,0.0482,0.0484,0.0461,0.0461,0.0461,0.046,0.046,0,-0.0771,-0.0784,-0.0763,-0.0772,-0.079,-0.0738,-0.0735,-0.0686,-0.0614,-0.0577,-0.0454,-0.039,-0.0191,-0.0045,0.0105,0.0313,0.0314,0.0456,0.0497,0.0448,0.0446,0.0442,0.0438,0.0465,0.0464,0.0463,0.0462,0,-0.084,-0.0828,-0.0849,-0.0827,-0.0825,-0.0839,-0.0807,-0.0795,-0.0721,-0.0667,-0.0638,-0.0466,-0.0271,-0.0066,0.018,0.0305,0.0496,0.0572,0.0498,0.0528,0.0598,0.0588,0.0723,0.0725,0.0726,0.0728,0.0729,0,-0.0876,-0.0896,-0.0904,-0.0925,-0.0919,-0.0926,-0.0927,-0.0861,-0.0839,-0.0706,-0.0682,-0.0485,-0.0327,0.0032,0.0281,0.0553,0.056,0.0671,0.065,0.06,0.0627,0.0614,0.0602,0.0652,0.0653,0.0653,0.0653,0,-0.0938,-0.0942,-0.0958,-0.1005,-0.1024,-0.1035,-0.1025,-0.1022,-0.0927,-0.0857,-0.0718,-0.058,-0.0234,0.006,0.0399,0.0551,0.0618,0.0687,0.0676,0.058,0.0542,0.0565,0.0554,0.0656,0.0656,0.0656,0.0656,0.0656,-0.098,-0.1011,-0.1037,-0.108,-0.1108,-0.1125,-0.1138,-0.1091,-0.1039,-0.09,-0.0754,-0.0507,-0.0241,0.0251,0.0479,0.0693,0.0693,0.0751,0.0746,0.0742,0.0697,0.0662,0.0791,0.0792,0.0792,0.0793,0.0793,0,-0.1027,-0.1058,-0.1106,-0.1153,-0.1201,-0.1192,-0.1188,-0.1171,-0.1102,-0.0911,-0.0738,-0.0395,-0.005,0.0236,0.0575,0.0769,0.0749,0.0798,0.073,0.0726,0.0722,0.0673,0.0763,0.0764,0.0764,0.0765,0,0,-0.1051,-0.1112,-0.1133,-0.122,-0.1257,-0.1297,-0.1298,-0.1228,-0.1103,-0.0907,-0.0683,-0.0398,-0.0046,0.0192,0.0426,0.0602,0.0607,0.0616,0.0617,0.0499,0.0493,0.0671,0.0588,0,0,0,0,0]}],[{"header":{"parameterUnit":"m.s-1","parameterCategory":2,"la1":30.2991,"la2":30.254,"lo1":-89.0895,"lo2":-89.0444,"dy":0.0017,"dx":0.0017,"nx":28,"ny":28,"refTime":"2024-12-05T03:00:00:Z","depth":"4","parameterNumber":2,"parameterNumberName":"U-component_of_CURRENTS"},"data":[0,0,0,0,0,0,0,0,0,0,0,0,0,0,0,0,0,0,0,0,0,0,0,0,0,0,0,0,0,0,0,0,0,0,0,0,0,0,0,0,0,0,0,0,0,0,0,0,0,0,0,0,0,0,0,0,0,0,-0.171,-0.1711,0,-0.1807,-0.1808,-0.1809,-0.1863,-0.1863,-0.1863,-0.1864,-0.1951,-0.1954,-0.1956,0,0,0,0,0,0,0,0,0,0,0,0,0,-0.1547,-0.155,-0.171,-0.1711,-0.1713,-0.1807,-0.1808,-0.1809,-0.1863,-0.1863,-0.1863,-0.1864,-0.1951,-0.1953,-0.1956,0,0,0,0,0,0,0,0,0,0,0,0,0,-0.1627,-0.1551,-0.171,-0.1752,-0.1756,-0.1807,-0.1808,-0.181,-0.1863,-0.1863,-0.1863,-0.1864,-0.195,-0.1953,-0.1956,-0.1967,0,0,-0.1966,-0.1967,0,0,0,0,0,0,0,0,-0.1622,-0.1633,-0.1744,-0.1749,-0.1754,-0.1824,-0.1783,-0.1862,-0.1862,-0.1821,-0.1864,-0.1864,-0.1909,-0.1915,-0.1931,-0.1971,-0.1975,-0.1966,-0.1968,-0.1969,-0.197,0,0,0,0,0,0,0,-0.1617,-0.1629,-0.1747,-0.1745,-0.1752,-0.1757,-0.1769,-0.1798,-0.186,-0.1825,-0.1829,-0.1842,-0.1911,-0.1928,-0.1933,-0.1976,-0.1966,-0.1969,-0.1971,-0.1972,-0.2138,-0.2141,0,0,0,0,0,0,-0.1609,-0.1624,-0.1744,-0.175,-0.169,-0.176,-0.1773,-0.18,-0.186,-0.187,-0.1841,-0.1844,-0.1922,-0.193,-0.1937,-0.2035,-0.1969,-0.1972,-0.1974,-0.2136,-0.2139,-0.2141,0,0,0,0,0,0,-0.1605,-0.1619,-0.174,-0.1689,-0.1705,-0.1763,-0.1792,-0.1802,-0.185,-0.1873,-0.1883,-0.1883,-0.1923,-0.1932,-0.1999,-0.2036,-0.1974,-0.1976,-0.2133,-0.2137,-0.214,-0.218,0,0,0,0,0,0,-0.16,-0.1618,-0.1648,-0.1689,-0.1708,-0.179,-0.1793,-0.1804,-0.1856,-0.1861,-0.1911,-0.1918,-0.1924,-0.1994,-0.2002,-0.2039,-0.1979,-0.2129,-0.2134,-0.2139,-0.2176,-0.2185,-0.2193,0,0,0,0,0,-0.1594,-0.1626,-0.1649,-0.1664,-0.1743,-0.1792,-0.1802,-0.1842,-0.1858,-0.1886,-0.1927,-0.1918,-0.203,-0.1999,-0.2007,-0.2046,-0.2127,-0.2133,-0.2138,-0.2172,-0.2183,-0.2193,0,0,0,0,0,0,-0.1564,-0.1636,-0.1661,-0.1713,-0.176,-0.1802,-0.1835,-0.1861,-0.1916,-0.1931,-0.1948,-0.1959,-0.2032,-0.204,-0.2005,-0.2112,-0.2078,-0.2086,-0.2101,-0.2112,-0.212,-0.2106,-0.1981,0,0,0,0,0,-0.1574,-0.1624,-0.1681,-0.1724,-0.1751,-0.18,-0.183,-0.1861,-0.1907,-0.1934,-0.1969,-0.2013,-0.2058,-0.2085,-0.2123,-0.2178,-0.2156,-0.2212,-0.2221,-0.2228,-0.2225,-0.2224,-0.2231,-0.216,-0.216,-0.216,0,0,-0.1572,-0.162,-0.1648,-0.1723,-0.1763,-0.1817,-0.182,-0.1878,-0.193,-0.1934,-0.2019,-0.2047,-0.2082,-0.2147,-0.218,-0.216,-0.2239,-0.2235,-0.224,-0.2234,-0.2231,-0.2237,-0.2243,-0.2164,-0.2163,-0.2163,0,0,-0.1586,-0.1641,-0.1687,-0.1737,-0.181,-0.1844,-0.1868,-0.1934,-0.1973,-0.2052,-0.2069,-0.2119,-0.2195,-0.2217,-0.2239,-0.2319,-0.2286,-0.2343,-0.2371,-0.2371,-0.2375,-0.2379,-0.2356,-0.2358,-0.2344,-0.2345,-0.2345,0,-0.1584,-0.1656,-0.1704,-0.1763,-0.181,-0.1861,-0.1918,-0.1967,-0.2047,-0.2077,-0.2092,-0.2198,-0.2225,-0.2287,-0.2319,-0.2335,-0.2322,-0.2323,-0.2378,-0.2381,-0.2384,-0.236,-0.236,-0.2347,-0.2347,-0.2347,-0.2346,0,-0.1626,-0.17,-0.1731,-0.1829,-0.188,-0.194,-0.201,-0.2067,-0.2121,-0.2159,-0.2242,-0.228,-0.2332,-0.2359,-0.2367,-0.2413,-0.2392,-0.2385,-0.2339,-0.2393,-0.2365,-0.2365,-0.2351,-0.235,-0.2349,-0.2349,0,0,-0.1581,-0.1734,-0.1749,-0.181,-0.1926,-0.1967,-0.2057,-0.2137,-0.2185,-0.2263,-0.2315,-0.2397,-0.2402,-0.2427,-0.244,-0.2447,-0.2459,-0.243,-0.2429,-0.2386,-0.2443,-0.2281,-0.2265,-0.2459,-0.246,-0.246,-0.2411,0,-0.1605,-0.1723,-0.1794,-0.1905,-0.1972,-0.205,-0.2121,-0.2198,-0.2262,-0.2322,-0.2364,-0.2423,-0.2433,-0.2456,-0.2469,-0.2467,-0.2463,-0.2471,-0.2416,-0.2414,-0.2246,-0.2261,-0.2462,-0.2411,-0.2411,-0.2411,-0.2411,0,-0.1618,-0.1705,-0.1822,-0.1954,-0.1987,-0.2056,-0.2165,-0.2234,-0.2321,-0.2366,-0.2422,-0.2451,-0.2493,-0.2485,-0.2495,-0.2501,-0.2476,-0.2463,-0.2461,-0.2292,-0.2252,-0.2351,-0.241,-0.241,-0.241,-0.241,-0.241,0,-0.1557,-0.1714,-0.181,-0.1863,-0.2019,-0.2076,-0.2148,-0.2246,-0.2296,-0.2387,-0.2419,-0.2475,-0.2499,-0.2495,-0.2479,-0.2492,-0.2459,-0.2467,-0.2294,-0.2282,-0.2424,-0.242,-0.2453,-0.2453,-0.2453,-0.2453,-0.2454,0,-0.1545,-0.1623,-0.1795,-0.1853,-0.1943,-0.2054,-0.2137,-0.2212,-0.2302,-0.2337,-0.2429,-0.2442,-0.2503,-0.2495,-0.2476,-0.2369,-0.2453,-0.2286,-0.2255,-0.2444,-0.2443,-0.2422,-0.242,-0.2452,-0.2452,-0.2452,-0.2453,0,-0.1467,-0.1587,-0.1703,-0.1878,-0.1926,-0.1988,-0.2122,-0.2161,-0.2268,-0.2313,-0.234,-0.2421,-0.2402,-0.2425,-0.2405,-0.2337,-0.227,-0.2208,-0.2391,-0.2374,-0.2097,-0.2098,-0.2011,-0.2005,-0.2,-0.1995,-0.1992,0,-0.1437,-0.1497,-0.1695,-0.1744,-0.183,-0.1935,-0.1987,-0.2124,-0.2156,-0.2268,-0.2259,-0.2296,-0.2324,-0.2153,-0.221,-0.214,-0.212,-0.2074,-0.2102,-0.2071,-0.2051,-0.206,-0.2067,-0.1983,-0.1982,-0.1981,-0.1979,0,-0.1371,-0.1458,-0.1553,-0.1661,-0.174,-0.1811,-0.1897,-0.1905,-0.2033,-0.2154,-0.2103,-0.2081,-0.2051,-0.2028,-0.1979,-0.194,-0.2104,-0.202,-0.2031,-0.2057,-0.2036,-0.2023,-0.2037,-0.1961,-0.1964,-0.1965,-0.1966,0,-0.1304,-0.1349,-0.1471,-0.1543,-0.1633,-0.1646,-0.1719,-0.174,-0.1789,-0.1918,-0.189,-0.1932,-0.2011,-0.192,-0.188,-0.1823,-0.1808,-0.1758,-0.1783,-0.1804,-0.1762,-0.1707,-0.1487,0,0,0,0,0,-0.1223,-0.1254,-0.1327,-0.1397,-0.1474,-0.1514,-0.1631,-0.1702,-0.1831,-0.1735,-0.1806,-0.1763,-0.1706,-0.1736,-0.1632,-0.1803,-0.1825,-0.1678,-0.1785,-0.186,-0.1881,-0.1852,0,0,0,0,0,0,-0.1168,-0.1236,-0.1284,-0.125,-0.1249,-0.1308,-0.1372,-0.1464,-0.1424,-0.1559,-0.1528,-0.1636,-0.1602,-0.1709,-0.158,-0.1591,-0.162,-0.172,-0.1715,-0.1848,-0.1867,-0.1884,-0.1861,0,0,0,0,0]},{"header":{"parameterUnit":"m.s-1","parameterCategory":2,"la1":30.2991,"la2":30.254,"lo1":-89.0895,"lo2":-89.0444,"dy":0.0017,"dx":0.0017,"nx":28,"ny":28,"refTime":"2024-12-05T03:00:00:Z","depth":"4","parameterNumber":3,"parameterNumberName":"V-component_of_CURRENTS"},"data":[0,0,0,0,0,0,0,0,0,0,0,0,0,0,0,0,0,0,0,0,0,0,0,0,0,0,0,0,0,0,0,0,0,0,0,0,0,0,0,0,0,0,0,0,0,0,0,0,0,0,0,0,0,0,0,0,0,0,-0.022,-0.022,0,-0.0164,-0.0163,-0.0162,-0.0112,-0.0112,-0.0111,-0.0111,0.0016,0.0019,0.0022,0,0,0,0,0,0,0,0,0,0,0,0,0,-0.0255,-0.0255,-0.022,-0.022,-0.0219,-0.0164,-0.0163,-0.0162,-0.0112,-0.0112,-0.0111,-0.0111,0.0015,0.0019,0.0022,0,0,0,0,0,0,0,0,0,0,0,0,0,-0.0222,-0.0254,-0.022,-0.0189,-0.0185,-0.0164,-0.0163,-0.0162,-0.0113,-0.0112,-0.0111,-0.0111,0.0014,0.0018,0.0023,0.0036,0,0,0.0036,0.0038,0,0,0,0,0,0,0,0,-0.0224,-0.0221,-0.0194,-0.0191,-0.0187,-0.0145,-0.0128,-0.0092,-0.0113,-0.0139,-0.0111,-0.011,-0.0033,-0.0024,-0.0015,0.0042,0.0048,0.0036,0.0039,0.0041,0.0042,0,0,0,0,0,0,0,-0.0226,-0.0223,-0.0197,-0.0193,-0.0189,-0.0167,-0.0161,-0.0121,-0.0088,-0.0137,-0.0133,-0.0129,-0.003,-0.0019,-0.0011,0.0049,0.0036,0.004,0.0043,0.0045,0.0165,0.0166,0,0,0,0,0,0,-0.0238,-0.0225,-0.0198,-0.0195,-0.0206,-0.0167,-0.0161,-0.0158,-0.009,-0.008,-0.013,-0.0127,-0.0027,-0.0016,-0.0006,0.0037,0.0041,0.0045,0.0048,0.0165,0.0166,0.0166,0,0,0,0,0,0,-0.0239,-0.0237,-0.0201,-0.021,-0.0204,-0.0167,-0.0165,-0.0158,-0.0146,-0.0086,-0.0074,-0.0125,-0.0026,-0.0012,0.0031,0.0041,0.0047,0.0051,0.0164,0.0165,0.0166,0.0108,0,0,0,0,0,0,-0.0241,-0.0237,-0.0243,-0.0211,-0.0204,-0.0193,-0.0165,-0.0157,-0.0145,-0.0141,-0.0078,-0.0066,-0.0024,0.0024,0.0036,0.0047,0.0055,0.0164,0.0165,0.0166,0.011,0.0107,0.0105,0,0,0,0,0,-0.0242,-0.0253,-0.0244,-0.0241,-0.0212,-0.0194,-0.0189,-0.0159,-0.0146,-0.0145,-0.0099,-0.0068,0.0039,0.0028,0.0041,0.0055,0.0163,0.0164,0.0166,0.0111,0.0108,0.0105,0,0,0,0,0,0,-0.0273,-0.0248,-0.0237,-0.0241,-0.0222,-0.0186,-0.0186,-0.0166,-0.013,-0.0125,-0.0066,-0.005,-0.0006,0.0031,0.0017,0.0094,0.0109,0.0113,0.0062,0.006,0.0058,0.0042,0.0058,0,0,0,0,0,-0.0284,-0.0284,-0.0256,-0.0261,-0.0254,-0.0222,-0.0213,-0.0193,-0.0158,-0.0142,-0.0097,-0.0043,0.0008,0.0037,0.0083,0.0121,0.0155,0.0141,0.0139,0.0136,0.0134,0.019,0.0192,0.017,0.017,0.017,0,0,-0.03,-0.0285,-0.0287,-0.0268,-0.0252,-0.0244,-0.0215,-0.0205,-0.019,-0.0133,-0.0101,-0.0054,0.0016,0.006,0.0084,0.0093,0.0161,0.0138,0.0135,0.0134,0.0191,0.0193,0.0195,0.0171,0.0171,0.0171,0,0,-0.0328,-0.0318,-0.0326,-0.0312,-0.0291,-0.0267,-0.0268,-0.0234,-0.0211,-0.0179,-0.0126,-0.0076,-0.0009,0.0048,0.0086,0.01,0.0143,0.0116,0.0095,0.0149,0.0151,0.0153,0.0194,0.02,0.0118,0.0118,0.0118,0,-0.0348,-0.0351,-0.0327,-0.0327,-0.0319,-0.0281,-0.0284,-0.0254,-0.0209,-0.0187,-0.0175,-0.0065,-0.001,0.0062,0.0068,0.0095,0.0124,0.0096,0.0145,0.0148,0.0151,0.0192,0.0199,0.0116,0.0116,0.0116,0.0116,0,-0.0375,-0.0378,-0.0383,-0.0368,-0.0356,-0.0354,-0.0312,-0.0293,-0.0262,-0.0226,-0.0164,-0.0092,-0.0026,0.0004,0.0041,0.0097,0.0109,0.0129,0.0145,0.0149,0.0193,0.0201,0.0112,0.0113,0.0113,0.0114,0,0,-0.0414,-0.0405,-0.0407,-0.0409,-0.0377,-0.0372,-0.0345,-0.0307,-0.0289,-0.0234,-0.02,-0.0106,-0.0073,-0.0027,0.003,0.008,0.0128,0.0106,0.011,0.0134,0.0235,0.02,0.0207,0.0151,0.0153,0.0154,0.0253,0,-0.0441,-0.046,-0.044,-0.045,-0.0456,-0.0413,-0.0393,-0.0352,-0.0307,-0.0266,-0.0179,-0.0127,-0.008,-0.0053,0.0006,0.0097,0.0149,0.0098,0.0238,0.0242,0.0202,0.0216,0.0158,0.026,0.0262,0.0264,0.0265,0,-0.047,-0.0478,-0.0502,-0.0493,-0.0491,-0.0491,-0.0455,-0.0431,-0.0355,-0.032,-0.0251,-0.0187,-0.0095,-0.0065,0.009,0.0051,0.0135,0.0204,0.021,0.0203,0.0224,0.026,0.0281,0.028,0.0279,0.0278,0.0277,0,-0.0511,-0.0517,-0.0542,-0.054,-0.0524,-0.0525,-0.0511,-0.0454,-0.0433,-0.0357,-0.0335,-0.0218,-0.0162,-0.0043,0.0097,0.0095,0.0257,0.0278,0.033,0.0329,0.0354,0.0351,0.0386,0.0386,0.0386,0.0385,0.0385,0,-0.0542,-0.056,-0.057,-0.0584,-0.0609,-0.0578,-0.0585,-0.0549,-0.0499,-0.0473,-0.0374,-0.0327,-0.0156,-0.0042,0.0084,0.0226,0.0253,0.0326,0.0354,0.0328,0.0321,0.036,0.0356,0.0389,0.0388,0.0387,0.0387,0,-0.0579,-0.0586,-0.0619,-0.0627,-0.0634,-0.0654,-0.0649,-0.0644,-0.0593,-0.0557,-0.0536,-0.0401,-0.0253,-0.0086,0.0116,0.0201,0.0346,0.0393,0.0341,0.0364,0.0387,0.0378,0.0461,0.046,0.046,0.046,0.046,0,-0.0597,-0.0622,-0.0665,-0.0695,-0.0706,-0.0729,-0.074,-0.0699,-0.0686,-0.0597,-0.0578,-0.0438,-0.0332,-0.0073,0.0095,0.0323,0.0356,0.0421,0.0415,0.0377,0.0396,0.0388,0.038,0.0459,0.0459,0.0459,0.0459,0,-0.0632,-0.0658,-0.0687,-0.0754,-0.0789,-0.0813,-0.0821,-0.0816,-0.0753,-0.0715,-0.0595,-0.045,-0.0286,-0.008,0.0091,0.0257,0.0371,0.0419,0.0421,0.0416,0.0376,0.0393,0.0386,0.0458,0.0458,0.0458,0.0458,0,-0.066,-0.0696,-0.0748,-0.0799,-0.0852,-0.0875,-0.0871,-0.0832,-0.0803,-0.0691,-0.0654,-0.0461,-0.0341,-0.0114,0.0046,0.0197,0.0239,0.0283,0.0293,0.0296,0.0212,0.0135,0.0167,0,0,0,0,0,-0.068,-0.0725,-0.0783,-0.084,-0.0894,-0.0918,-0.0913,-0.0892,-0.0834,-0.0755,-0.0696,-0.0535,-0.0282,-0.0169,-0.0021,0.0026,0.0247,0.02,0.0297,0.0452,0.0453,0.0379,0,0,0,0,0,0,-0.0696,-0.076,-0.0787,-0.0863,-0.0908,-0.0954,-0.0951,-0.0909,-0.0846,-0.0768,-0.0627,-0.053,-0.0282,-0.0374,-0.0032,0.0015,0.0091,0.0327,0.033,0.0451,0.0453,0.0453,0.0377,0,0,0,0,0]}]]